2016-04-17 00:01:10 r, 15.19m,0000000075Hz,0000006217c,0000000.013s, 020.6C,00002195
2016-04-17 00:11:09 r, 15.17m,0000000075Hz,0000006053c,0000000.013s, 020.9C,00002195
2016-04-17 00:21:09 r, 15.14m,0000000077Hz,0000005889c,0000000.013s, 020.9C,00002195
2016-04-17 00:31:11 r, 15.19m,0000000075Hz,0000006217c,0000000.013s, 020.9C,00002195
2016-04-17 00:41:09 r, 15.15m,0000000076Hz,0000006001c,0000000.013s, 020.9C,00002195
2016-04-17 00:51:10 r, 15.17m,0000000075Hz,0000006084c,0000000.013s, 020.9C,00002195
2016-04-17 01:01:11 r, 15.20m,0000000072Hz,0000006278c,0000000.014s, 020.9C,00002195
2016-04-17 01:11:09 r, 15.19m,0000000074Hz,0000006231c,0000000.014s, 020.9C,00002195
2016-04-17 01:21:09 r, 15.19m,0000000074Hz,0000006212c,0000000.013s, 020.9C,00002195
2016-04-17 01:31:10 r, 15.17m,0000000075Hz,0000006102c,0000000.013s, 020.9C,00002195
2016-04-17 01:41:09 r, 15.11m,0000000080Hz,0000005781c,0000000.013s, 020.9C,00002195
2016-04-17 01:51:09 r, 15.07m,0000000084Hz,0000005538c,0000000.012s, 020.6C,00002195
2016-04-17 02:01:10 r, 15.08m,0000000082Hz,0000005626c,0000000.012s, 020.3C,00002195
2016-04-17 02:11:09 r, 15.07m,0000000082Hz,0000005576c,0000000.012s, 019.9C,00002195
2016-04-17 02:21:09 r, 15.07m,0000000084Hz,0000005542c,0000000.012s, 019.6C,00002195
2016-04-17 02:31:11 r, 15.14m,0000000078Hz,0000005899c,0000000.013s, 019.3C,00002195
2016-04-17 02:41:09 r, 15.22m,0000000073Hz,0000006340c,0000000.014s, 019.3C,00002195
2016-04-17 02:51:09 r, 15.18m,0000000075Hz,0000006115c,0000000.013s, 019.3C,00002195
2016-04-17 03:01:09 r, 15.29m,0000000068Hz,0000006786c,0000000.015s, 019.3C,00002195
2016-04-17 03:11:09 r, 15.17m,0000000076Hz,0000006065c,0000000.013s, 019.0C,00002195
2016-04-17 03:21:11 r, 15.22m,0000000072Hz,0000006392c,0000000.014s, 019.3C,00002195
2016-04-17 03:31:10 r, 15.24m,0000000072Hz,0000006511c,0000000.014s, 019.3C,00002195
2016-04-17 03:41:09 r, 15.26m,0000000070Hz,0000006624c,0000000.014s, 019.0C,00002195
2016-04-17 03:51:09 r, 15.33m,0000000066Hz,0000007079c,0000000.015s, 019.0C,00002195
2016-04-17 04:01:09 r, 15.31m,0000000066Hz,0000006913c,0000000.015s, 019.0C,00002195
2016-04-17 04:11:09 r, 15.32m,0000000067Hz,0000006981c,0000000.015s, 019.0C,00002195
2016-04-17 04:21:10 r, 15.41m,0000000060Hz,0000007568c,0000000.016s, 019.0C,00002195
2016-04-17 04:31:10 r, 15.40m,0000000061Hz,0000007504c,0000000.016s, 019.0C,00002195
2016-04-17 04:41:11 r, 15.38m,0000000061Hz,0000007362c,0000000.016s, 019.0C,00002195
2016-04-17 04:51:09 r, 15.45m,0000000058Hz,0000007877c,0000000.017s, 019.0C,00002195
2016-04-17 05:01:10 r, 15.48m,0000000056Hz,0000008089c,0000000.018s, 019.0C,00002195
2016-04-17 05:11:10 r, 15.41m,0000000061Hz,0000007555c,0000000.016s, 019.0C,00002195
2016-04-17 05:21:09 r, 15.36m,0000000063Hz,0000007288c,0000000.016s, 019.3C,00002195
2016-04-17 05:31:11 r, 15.30m,0000000067Hz,0000006868c,0000000.015s, 019.3C,00002195
2016-04-17 05:41:10 r, 15.17m,0000000074Hz,0000006092c,0000000.013s, 019.3C,00002195
2016-04-17 05:51:10 r, 14.82m,0000000104Hz,0000004429c,0000000.010s, 019.3C,00002195
2016-04-17 06:01:10 r, 13.66m,0000000306Hz,0000000000c,0000000.000s, 019.3C,00002195
2016-04-17 06:11:10 r, 12.13m,0000001260Hz,0000000000c,0000000.000s, 019.3C,00002195
2016-04-17 06:21:11 r, 10.54m,0000005420Hz,0000000000c,0000000.000s, 019.3C,00002195
2016-04-17 06:31:10 r, 09.24m,0000018038Hz,0000000000c,0000000.000s, 019.3C,00002195
2016-04-17 06:41:11 r, 08.15m,0000049027Hz,0000000000c,0000000.000s, 019.3C,00002195
2016-04-17 06:51:09 r, 07.42m,0000095746Hz,0000000000c,0000000.000s, 019.3C,00002195
2016-04-17 07:01:09 r, 07.22m,0000114791Hz,0000000000c,0000000.000s, 019.3C,00002195
2016-04-17 07:11:11 r, 07.16m,0000122283Hz,0000000000c,0000000.000s, 019.3C,00002195
2016-04-17 07:21:09 r, 06.64m,0000195948Hz,0000000000c,0000000.000s, 019.3C,00002195
2016-04-17 07:31:11 r, 00.00m,0000417377Hz,0000000000c,0000000.000s, 019.3C,00002195
2016-04-17 07:41:09 r, 00.00m,0000499587Hz,0000000000c,0000000.000s, 019.6C,00002195
2016-04-17 07:51:09 r, 00.00m,0000510535Hz,0000000000c,0000000.000s, 019.6C,00002195
2016-04-17 08:01:09 r, 00.00m,0000426953Hz,0000000000c,0000000.000s, 019.6C,00002195
2016-04-17 08:11:10 r, 00.00m,0000471380Hz,0000000000c,0000000.000s, 019.6C,00002195
2016-04-17 08:21:09 r, 00.00m,0000542983Hz,0000000000c,0000000.000s, 019.6C,00002195
2016-04-17 08:31:09 r, 00.00m,0000563390Hz,0000000000c,0000000.000s, 019.6C,00002195
2016-04-17 08:41:11 r, 00.00m,0000563390Hz,0000000000c,0000000.000s, 019.6C,00002195
2016-04-17 08:51:09 r, 00.00m,0000563443Hz,0000000000c,0000000.000s, 019.6C,00002195
2016-04-17 09:01:10 r, 00.00m,0000563475Hz,0000000000c,0000000.000s, 019.9C,00002195
2016-04-17 09:11:10 r, 00.00m,0000563523Hz,0000000000c,0000000.000s, 019.9C,00002195
2016-04-17 09:21:09 r, 00.00m,0000563593Hz,0000000000c,0000000.000s, 020.3C,00002195
2016-04-17 09:31:11 r, 00.00m,0000563564Hz,0000000000c,0000000.000s, 020.6C,00002195
2016-04-17 09:41:10 r, 00.00m,0000563515Hz,0000000000c,0000000.000s, 020.3C,00002195
2016-04-17 09:51:09 r, 00.00m,0000563544Hz,0000000000c,0000000.000s, 020.3C,00002195
2016-04-17 10:01:09 r, 00.00m,0000563484Hz,0000000000c,0000000.000s, 020.3C,00002195
2016-04-17 10:11:10 r, 00.00m,0000563485Hz,0000000000c,0000000.000s, 020.3C,00002195
2016-04-17 10:21:09 r, 00.00m,0000563554Hz,0000000000c,0000000.000s, 020.6C,00002195
2016-04-17 10:31:09 r, 00.00m,0000563578Hz,0000000000c,0000000.000s, 020.6C,00002195
2016-04-17 10:41:10 r, 00.00m,0000563694Hz,0000000000c,0000000.000s, 020.9C,00002195
2016-04-17 10:51:09 r, 00.00m,0000563657Hz,0000000000c,0000000.000s, 021.2C,00002195
2016-04-17 11:01:10 r, 00.00m,0000563643Hz,0000000000c,0000000.000s, 021.2C,00002195
2016-04-17 11:11:10 r, 00.00m,0000563707Hz,0000000000c,0000000.000s, 021.5C,00002195
2016-04-17 11:21:09 r, 00.00m,0000563833Hz,0000000000c,0000000.000s, 022.5C,00002195
2016-04-17 11:31:09 r, 00.00m,0000563804Hz,0000000000c,0000000.000s, 022.2C,00002195
2016-04-17 11:41:10 r, 00.00m,0000563906Hz,0000000000c,0000000.000s, 022.5C,00002195
2016-04-17 11:51:09 r, 00.00m,0000563805Hz,0000000000c,0000000.000s, 022.2C,00002195
2016-04-17 12:01:12 r, 00.00m,0000563764Hz,0000000000c,0000000.000s, 022.2C,00002195
2016-04-17 12:11:10 r, 00.00m,0000563847Hz,0000000000c,0000000.000s, 022.5C,00002195
2016-04-17 12:21:09 r, 00.00m,0000563772Hz,0000000000c,0000000.000s, 022.5C,00002195
2016-04-17 12:31:12 r, 00.00m,0000563769Hz,0000000000c,0000000.000s, 022.8C,00002195
2016-04-17 12:41:10 r, 00.00m,0000563949Hz,0000000000c,0000000.000s, 023.2C,00002195
2016-04-17 12:51:09 r, 00.00m,0000563962Hz,0000000000c,0000000.000s, 023.2C,00002195
2016-04-17 13:01:10 r, 00.00m,0000563900Hz,0000000000c,0000000.000s, 023.2C,00002195
2016-04-17 13:11:10 r, 00.00m,0000563915Hz,0000000000c,0000000.000s, 023.2C,00002195
2016-04-17 13:21:09 r, 00.00m,0000563957Hz,0000000000c,0000000.000s, 023.5C,00002195
2016-04-17 13:31:11 r, 00.00m,0000563908Hz,0000000000c,0000000.000s, 023.5C,00002195
2016-04-17 13:41:10 r, 00.00m,0000563817Hz,0000000000c,0000000.000s, 023.2C,00002195
2016-04-17 13:51:09 r, 00.00m,0000563856Hz,0000000000c,0000000.000s, 023.2C,00002195
2016-04-17 14:01:10 r, 00.00m,0000563922Hz,0000000000c,0000000.000s, 023.2C,00002195
2016-04-17 14:11:11 r, 00.00m,0000563855Hz,0000000000c,0000000.000s, 023.2C,00002195
2016-04-17 14:21:09 r, 00.00m,0000564030Hz,0000000000c,0000000.000s, 023.5C,00002195
2016-04-17 14:31:09 r, 00.00m,0000563909Hz,0000000000c,0000000.000s, 023.8C,00002195
2016-04-17 14:41:09 r, 00.00m,0000563999Hz,0000000000c,0000000.000s, 023.8C,00002195
2016-04-17 14:51:09 r, 00.00m,0000563942Hz,0000000000c,0000000.000s, 023.8C,00002195
2016-04-17 15:01:09 r, 00.00m,0000563807Hz,0000000000c,0000000.000s, 023.5C,00002195
2016-04-17 15:11:11 r, 00.00m,0000563865Hz,0000000000c,0000000.000s, 023.5C,00002195
2016-04-17 15:21:09 r, 00.00m,0000563858Hz,0000000000c,0000000.000s, 023.2C,00002195
2016-04-17 15:31:09 r, 00.00m,0000563883Hz,0000000000c,0000000.000s, 023.2C,00002195
2016-04-17 15:41:12 r, 00.00m,0000563863Hz,0000000000c,0000000.000s, 023.2C,00002195
2016-04-17 15:51:09 r, 00.00m,0000563799Hz,0000000000c,0000000.000s, 023.2C,00002195
2016-04-17 16:01:09 r, 00.00m,0000563806Hz,0000000000c,0000000.000s, 023.2C,00002195
2016-04-17 16:11:12 r, 00.00m,0000563796Hz,0000000000c,0000000.000s, 022.8C,00002195
2016-04-17 16:21:09 r, 00.00m,0000563768Hz,0000000000c,0000000.000s, 022.8C,00002195
2016-04-17 16:31:09 r, 00.00m,0000563774Hz,0000000000c,0000000.000s, 022.8C,00002195
2016-04-17 16:41:09 r, 00.00m,0000563830Hz,0000000000c,0000000.000s, 022.8C,00002195
2016-04-17 16:51:09 r, 00.00m,0000563782Hz,0000000000c,0000000.000s, 022.8C,00002195
2016-04-17 17:01:09 r, 00.00m,0000563711Hz,0000000000c,0000000.000s, 022.5C,00002195
2016-04-17 17:11:09 r, 00.00m,0000563674Hz,0000000000c,0000000.000s, 022.5C,00002195
2016-04-17 17:21:09 r, 00.00m,0000563640Hz,0000000000c,0000000.000s, 022.2C,00002195
2016-04-17 17:31:09 r, 00.00m,0000563659Hz,0000000000c,0000000.000s, 021.9C,00002195
2016-04-17 17:41:09 r, 00.00m,0000563594Hz,0000000000c,0000000.000s, 022.2C,00002195
2016-04-17 17:51:09 r, 00.00m,0000563612Hz,0000000000c,0000000.000s, 021.9C,00002195
2016-04-17 18:01:09 r, 00.00m,0000563685Hz,0000000000c,0000000.000s, 021.9C,00002195
2016-04-17 18:11:09 r, 00.00m,0000563572Hz,0000000000c,0000000.000s, 021.5C,00002195
2016-04-17 18:21:09 r, 00.00m,0000563573Hz,0000000000c,0000000.000s, 021.5C,00002195
2016-04-17 18:31:09 r, 00.00m,0000558035Hz,0000000000c,0000000.000s, 021.2C,00002195
2016-04-17 18:41:09 r, 00.00m,0000563597Hz,0000000000c,0000000.000s, 021.2C,00002195
2016-04-17 18:51:09 r, 00.00m,0000563493Hz,0000000000c,0000000.000s, 021.2C,00002195
2016-04-17 19:01:09 r, 00.00m,0000545795Hz,0000000000c,0000000.000s, 021.2C,00002195
2016-04-17 19:11:10 r, 05.95m,0000370662Hz,0000000000c,0000000.000s, 021.2C,00002195
2016-04-17 19:21:09 r, 06.14m,0000311439Hz,0000000000c,0000000.000s, 021.2C,00002195
2016-04-17 19:31:09 r, 06.27m,0000276776Hz,0000000000c,0000000.000s, 021.2C,00002195
2016-04-17 19:41:11 r, 06.65m,0000195197Hz,0000000000c,0000000.000s, 021.2C,00002195
2016-04-17 19:51:09 r, 06.69m,0000187701Hz,0000000000c,0000000.000s, 021.2C,00002195
2016-04-17 20:01:09 r, 07.18m,0000119101Hz,0000000000c,0000000.000s, 021.2C,00002195
2016-04-17 20:11:12 r, 07.68m,0000075652Hz,0000000000c,0000000.000s, 021.2C,00002195
2016-04-17 20:21:09 r, 08.78m,0000027431Hz,0000000000c,0000000.000s, 021.2C,00002195
2016-04-17 20:31:09 r, 09.43m,0000015072Hz,0000000000c,0000000.000s, 021.2C,00002195
2016-04-17 20:41:12 r, 10.95m,0000003699Hz,0000000000c,0000000.000s, 021.2C,00002195
2016-04-17 20:51:09 r, 12.20m,0000001177Hz,0000000000c,0000000.000s, 020.9C,00002195
2016-04-17 21:01:09 r, 13.83m,0000000261Hz,0000000000c,0000000.000s, 020.9C,00002195
2016-04-17 21:11:10 r, 15.12m,0000000079Hz,0000005842c,0000000.013s, 020.9C,00002195
2016-04-17 21:21:12 r, 15.48m,0000000056Hz,0000008080c,0000000.018s, 020.6C,00002195
2016-04-17 21:31:09 r, 15.24m,0000000071Hz,0000006477c,0000000.014s, 020.9C,00002195
2016-04-17 21:41:09 r, 15.35m,0000000064Hz,0000007223c,0000000.016s, 020.6C,00002195
2016-04-17 21:51:09 r, 15.46m,0000000057Hz,0000007958c,0000000.017s, 020.6C,00002195
2016-04-17 22:01:09 r, 15.69m,0000000047Hz,0000009877c,0000000.021s, 020.6C,00002195
2016-04-17 22:11:10 r, 15.76m,0000000043Hz,0000010551c,0000000.023s, 020.3C,00002195
2016-04-17 22:21:10 r, 15.85m,0000000040Hz,0000011438c,0000000.025s, 020.3C,00002195
2016-04-17 22:31:09 r, 15.87m,0000000040Hz,0000011569c,0000000.025s, 019.9C,00002195
2016-04-17 22:41:12 r, 15.81m,0000000041Hz,0000010947c,0000000.024s, 019.9C,00002195
2016-04-17 22:51:10 r, 15.74m,0000000044Hz,0000010265c,0000000.022s, 019.9C,00002195
2016-04-17 23:01:09 r, 15.69m,0000000047Hz,0000009844c,0000000.021s, 019.9C,00002195
2016-04-17 23:11:10 r, 15.65m,0000000048Hz,0000009518c,0000000.021s, 019.9C,00002195
2016-04-17 23:21:11 r, 15.60m,0000000051Hz,0000009037c,0000000.020s, 019.9C,00002195
2016-04-17 23:31:09 r, 15.88m,0000000039Hz,0000011654c,0000000.025s, 019.9C,00002195
2016-04-17 23:41:11 r, 15.94m,0000000037Hz,0000012308c,0000000.027s, 019.9C,00002195
2016-04-17 23:51:10 r, 15.81m,0000000042Hz,0000010995c,0000000.024s, 019.9C,00002195
